Tracking 35331 objects as of 15-Sep-2026
HD Live streaming from Space Station
objects crossing your sky now

GUNSMOKE-J 4


GUNSMOKE-J 4 is no longer on orbit


NORAD ID: 48878
Int'l Code: 2021-058H
Launch date: June 30, 2021
Source: United States (US)
Launch site: Pegasus launched from Western Range Air Space (WRAS)
Decay date: 2024-04-09
Your satellite tracking list
Your tracking list is empty




NASA's NSSDC Master Catalog

Two Line Element Set (TLE):
1 48878U 21058H   24090.88458845  .16455694  10142-4  27859-3 0  9992
2 48878  60.6495 359.5609 0007655 242.1770 117.8600 16.47495577153939
Source of the keplerian elements: AFSPC